| time (UTC) | temp F | wind direction | speed MPH | gust MPH | rain 1hr in | rain 24hr in | rain mn in | humidity % | barometer mb |
| 20260903163017 | 74 | 209 | 5.0 | 17.0 | 0.00 | 0.00 | 0.00 | 80 | 1017.0 |
| 20260903160517 | 76 | 198 | 9.0 | 17.0 | 0.00 | 0.00 | 0.00 | 76 | 1017.3 |
| 20260903155017 | 76 | 206 | 9.0 | 14.0 | 0.00 | 0.00 | 0.00 | 75 | 1017.3 |
| 20260903154517 | 76 | 208 | 4.0 | 14.0 | 0.00 | 0.00 | 0.00 | 76 | 1017.3 |
| 20260903154017 | 76 | 187 | 7.0 | 14.0 | 0.00 | 0.00 | 0.00 | 76 | 1017.5 |
| 20260903153517 | 76 | 198 | 7.0 | 14.0 | 0.00 | 0.00 | 0.00 | 76 | 1017.4 |
| 20260903153018 | 76 | 204 | 7.0 | 14.0 | 0.00 | 0.00 | 0.00 | 77 | 1017.4 |
| 20260903152517 | 76 | 183 | 7.0 | 16.0 | 0.00 | 0.00 | 0.00 | 76 | 1017.5 |
| 20260903152017 | 76 | 203 | 6.0 | 16.0 | 0.00 | 0.00 | 0.00 | 76 | 1017.6 |
| 20260903151518 | 77 | 194 | 8.0 | 16.0 | 0.00 | 0.00 | 0.00 | 75 | 1017.7 |
| 20260903150018 | 77 | 203 | 6.0 | 12.0 | 0.00 | 0.00 | 0.00 | 74 | 1017.7 |
| 20260903144517 | 78 | 190 | 7.0 | 16.0 | 0.00 | 0.00 | 0.00 | 74 | 1017.8 |
| 20260903144018 | 78 | 198 | 6.0 | 16.0 | 0.00 | 0.00 | 0.00 | 72 | 1017.7 |
| 20260903143018 | 78 | 219 | 8.0 | 17.0 | 0.00 | 0.00 | 0.00 | 69 | 1017.7 |
| 20260903142017 | 77 | 206 | 7.0 | 12.0 | 0.00 | 0.00 | 0.00 | 75 | 1017.8 |
| 20260903141017 | 77 | 215 | 6.0 | 13.0 | 0.00 | 0.00 | 0.00 | 76 | 1017.9 |
| 20260903135017 | 78 | 220 | 6.0 | 13.0 | 0.00 | 0.00 | 0.00 | 73 | 1017.7 |
| 20260903133517 | 79 | 189 | 7.0 | 14.0 | 0.00 | 0.00 | 0.00 | 74 | 1017.9 |
| 20260903132517 | 78 | 211 | 5.0 | 12.0 | 0.00 | 0.00 | 0.00 | 75 | 1018.1 |
| 20260903130518 | 77 | 179 | 7.0 | 12.0 | 0.00 | 0.00 | 0.00 | 79 | 1018.0 |
| 20260903125517 | 75 | 176 | 2.0 | 9.0 | 0.00 | 0.00 | 0.00 | 82 | 1018.0 |
| 20260903124517 | 74 | 214 | 6.0 | 10.0 | 0.00 | 0.00 | 0.00 | 82 | 1018.1 |
| 20260903123517 | 74 | 188 | 5.0 | 9.0 | 0.00 | 0.00 | 0.00 | 82 | 1018.1 |
| 20260903123018 | 74 | 190 | 5.0 | 9.0 | 0.00 | 0.00 | 0.00 | 81 | 1018.1 |
| 20260903122518 | 75 | 190 | 5.0 | 10.0 | 0.00 | 0.00 | 0.00 | 80 | 1018.2 |
| 20260903120018 | 75 | 179 | 6.0 | 12.0 | 0.00 | 0.02 | 0.00 | 81 | 1018.2 |
| 20260903114517 | 74 | 210 | 5.0 | 10.0 | 0.00 | 0.03 | 0.00 | 82 | 1018.3 |
| 20260903113018 | 74 | 208 | 6.0 | 12.0 | 0.00 | 0.03 | 0.00 | 81 | 1018.4 |
| 20260903112018 | 74 | 194 | 6.0 | 12.0 | 0.00 | 0.03 | 0.00 | 77 | 1018.4 |
| 20260903110518 | 75 | 202 | 6.0 | 15.0 | 0.00 | 0.03 | 0.00 | 75 | 1018.2 |
| 20260903110017 | 76 | 223 | 7.0 | 15.0 | 0.00 | 0.03 | 0.00 | 74 | 1018.2 |
| 20260903104517 | 75 | 193 | 3.0 | 14.0 | 0.00 | 0.03 | 0.00 | 79 | 1018.2 |
| 20260903103017 | 73 | 211 | 5.0 | 9.0 | 0.00 | 0.03 | 0.00 | 82 | 1018.3 |
| 20260903102517 | 72 | 227 | 4.0 | 9.0 | 0.00 | 0.03 | 0.00 | 83 | 1018.3 |
| 20260903102018 | 72 | 222 | 5.0 | 8.0 | 0.00 | 0.03 | 0.00 | 83 | 1018.3 |
| 20260903100018 | 70 | 230 | 4.0 | 8.0 | 0.00 | 0.03 | 0.00 | 85 | 1018.5 |
| 20260903095017 | 70 | 235 | 2.0 | 7.0 | 0.00 | 0.03 | 0.00 | 85 | 1018.6 |
| 20260903094517 | 70 | 224 | 2.0 | 7.0 | 0.00 | 0.03 | 0.00 | 85 | 1018.5 |
| 20260903094017 | 70 | 218 | 5.0 | 7.0 | 0.00 | 0.03 | 0.00 | 85 | 1018.6 |
| 20260903093517 | 70 | 221 | 2.0 | 8.0 | 0.00 | 0.03 | 0.00 | 85 | 1018.5 |
| 20260903093018 | 70 | 203 | 2.0 | 9.0 | 0.00 | 0.03 | 0.00 | 85 | 1018.6 |
| 20260903092517 | 69 | 225 | 6.0 | 9.0 | 0.00 | 0.03 | 0.00 | 85 | 1018.6 |
| 20260903092017 | 69 | 221 | 5.0 | 9.0 | 0.00 | 0.03 | 0.00 | 85 | 1018.6 |
| 20260903091517 | 69 | 242 | 5.0 | 9.0 | 0.00 | 0.03 | 0.00 | 85 | 1018.6 |
| 20260903085518 | 70 | 231 | 6.0 | 13.0 | 0.00 | 0.03 | 0.00 | 84 | 1018.6 |
| 20260903084517 | 70 | 218 | 3.0 | 10.0 | 0.00 | 0.03 | 0.00 | 84 | 1018.5 |
| 20260903083517 | 70 | 208 | 6.0 | 12.0 | 0.00 | 0.03 | 0.00 | 83 | 1018.5 |
| 20260903082517 | 70 | 232 | 5.0 | 13.0 | 0.00 | 0.03 | 0.00 | 84 | 1018.5 |
| 20260903080018 | 69 | 208 | 5.0 | 12.0 | 0.00 | 0.05 | 0.00 | 86 | 1018.2 |
| 20260903075517 | 69 | 218 | 5.0 | 9.0 | 0.00 | 0.05 | 0.00 | 87 | 1018.2 |
| 20260903074518 | 68 | 212 | 4.0 | 10.0 | 0.00 | 0.05 | 0.00 | 88 | 1018.2 |
| 20260903072018 | 67 | 203 | 5.0 | 10.0 | 0.00 | 0.05 | 0.00 | 91 | 1017.9 |
| 20260903071517 | 67 | 203 | 4.0 | 10.0 | 0.00 | 0.05 | 0.00 | 92 | 1018.0 |
| 20260903071017 | 67 | 190 | 3.0 | 7.0 | 0.00 | 0.05 | 0.00 | 92 | 1017.9 |
| 20260903065017 | 67 | 200 | 1.0 | 7.0 | 0.00 | 0.05 | 0.00 | 92 | 1017.7 |
| 20260903064517 | 67 | 190 | 5.0 | 7.0 | 0.00 | 0.05 | 0.00 | 92 | 1017.7 |
| 20260903064018 | 66 | 188 | 3.0 | 8.0 | 0.00 | 0.05 | 0.00 | 92 | 1017.7 |
| 20260903062517 | 66 | 205 | 2.0 | 7.0 | 0.00 | 0.05 | 0.00 | 92 | 1017.7 |
| 20260903062017 | 66 | 197 | 3.0 | 6.0 | 0.00 | 0.05 | 0.00 | 92 | 1017.7 |
| 20260903061018 | 66 | 200 | 3.0 | 7.0 | 0.00 | 0.05 | 0.00 | 92 | 1017.6 |
| 20260903060017 | 66 | 207 | 3.0 | 5.0 | 0.00 | 0.05 | 0.00 | 92 | 1017.6 |
| 20260903055517 | 66 | 207 | 2.0 | 3.0 | 0.00 | 0.05 | 0.00 | 92 | 1017.7 |
| 20260903053518 | 66 | 225 | 3.0 | 7.0 | 0.00 | 0.05 | 0.00 | 92 | 1017.8 |
| 20260903052517 | 66 | 210 | 3.0 | 6.0 | 0.00 | 0.05 | 0.00 | 92 | 1017.7 |
| 20260903052017 | 66 | 225 | 5.0 | 6.0 | 0.00 | 0.05 | 0.00 | 92 | 1017.6 |
| 20260903051517 | 66 | 227 | 2.0 | 5.0 | 0.00 | 0.05 | 0.00 | 92 | 1017.6 |
| 20260903050517 | 66 | 227 | 2.0 | 7.0 | 0.00 | 0.05 | 0.00 | 92 | 1017.5 |
| 20260903050017 | 66 | 206 | 4.0 | 7.0 | 0.00 | 0.05 | 0.00 | 92 | 1017.4 |
| 20260903045517 | 66 | 211 | 3.0 | 7.0 | 0.00 | 0.05 | 0.00 | 92 | 1017.4 |
| 20260903044517 | 66 | 218 | 3.0 | 8.0 | 0.00 | 0.05 | 0.00 | 93 | 1017.2 |
| 20260903043517 | 66 | 199 | 3.0 | 7.0 | 0.00 | 0.05 | 0.00 | 92 | 1017.2 |
| 20260903035517 | 66 | 188 | 3.0 | 7.0 | 0.00 | 0.05 | 0.00 | 92 | 1017.2 |
| 20260903034017 | 66 | 198 | 4.0 | 10.0 | 0.00 | 0.05 | 0.00 | 92 | 1017.0 |
| 20260903033517 | 66 | 197 | 3.0 | 8.0 | 0.00 | 0.05 | 0.00 | 92 | 1017.1 |
| 20260903032017 | 66 | 210 | 2.0 | 3.0 | 0.00 | 0.05 | 0.00 | 93 | 1017.0 |
| 20260903030017 | 66 | 175 | 2.0 | 7.0 | 0.00 | 0.05 | 0.00 | 92 | 1017.0 |
| 20260903025518 | 66 | 202 | 3.0 | 7.0 | 0.00 | 0.05 | 0.00 | 92 | 1017.1 |
| 20260903025017 | 66 | 175 | 3.0 | 6.0 | 0.00 | 0.05 | 0.00 | 92 | 1017.1 |
| 20260903024517 | 66 | 178 | 3.0 | 8.0 | 0.00 | 0.05 | 0.00 | 92 | 1017.2 |
| 20260903023517 | 66 | 182 | 2.0 | 8.0 | 0.00 | 0.05 | 0.00 | 92 | 1017.3 |
| 20260903023017 | 66 | 183 | 4.0 | 7.0 | 0.00 | 0.05 | 0.00 | 92 | 1017.3 |
| 20260903022017 | 66 | 202 | 3.0 | 6.0 | 0.00 | 0.05 | 0.00 | 92 | 1017.5 |
| 20260903021518 | 66 | 188 | 2.0 | 7.0 | 0.00 | 0.05 | 0.00 | 92 | 1017.5 |
| 20260903020517 | 66 | 180 | 3.0 | 9.0 | 0.00 | 0.05 | 0.00 | 92 | 1017.4 |
| 20260903020017 | 66 | 169 | 1.0 | 3.0 | 0.00 | 0.05 | 0.00 | 91 | 1017.3 |
| 20260903015517 | 66 | 211 | 1.0 | 9.0 | 0.00 | 0.05 | 0.00 | 91 | 1017.6 |
| 20260903015018 | 66 | 198 | 5.0 | 9.0 | 0.00 | 0.05 | 0.00 | 91 | 1017.3 |
| 20260903014518 | 66 | 187 | 3.0 | 7.0 | 0.00 | 0.05 | 0.00 | 91 | 1017.3 |
| 20260903014017 | 66 | 173 | 2.0 | 9.0 | 0.00 | 0.05 | 0.00 | 91 | 1017.4 |
| 20260903013517 | 66 | 205 | 4.0 | 9.0 | 0.00 | 0.05 | 0.00 | 91 | 1017.4 |
| 20260903012017 | 66 | 178 | 4.0 | 8.0 | 0.00 | 0.05 | 0.00 | 92 | 1017.2 |
| 20260903011517 | 66 | 176 | 2.0 | 8.0 | 0.00 | 0.05 | 0.00 | 92 | 1017.3 |
| 20260903010517 | 66 | 180 | 2.0 | 6.0 | 0.00 | 0.05 | 0.00 | 92 | 1017.4 |
| 20260903010017 | 66 | 187 | 2.0 | 6.0 | 0.00 | 0.05 | 0.00 | 92 | 1017.4 |
| 20260903004017 | 66 | 148 | 2.0 | 3.0 | 0.00 | 0.05 | 0.00 | 92 | 1017.7 |
| 20260903003517 | 66 | 183 | 2.0 | 6.0 | 0.00 | 0.05 | 0.00 | 92 | 1017.8 |
| 20260903003017 | 66 | 143 | 3.0 | 6.0 | 0.00 | 0.05 | 0.00 | 92 | 1017.6 |
| 20260903002017 | 66 | 140 | 1.0 | 5.0 | 0.00 | 0.05 | 0.00 | 92 | 1017.7 |
| 20260903001017 | 66 | 139 | 2.0 | 7.0 | 0.00 | 0.05 | 0.00 | 92 | 1017.7 |
| 20260903000017 | 66 | 192 | 3.0 | 7.0 | 0.00 | 0.05 | 0.00 | 92 | 1018.0 |
| 20260902235517 | 66 | 205 | 3.0 | 7.0 | 0.00 | 0.05 | 0.00 | 92 | 1018.0 |
| 20260902235018 | 66 | 190 | 3.0 | 7.0 | 0.00 | 0.05 | 0.00 | 92 | 1018.1 |
| 20260902234517 | 66 | 214 | 3.0 | 6.0 | 0.00 | 0.05 | 0.00 | 92 | 1018.1 |
| 20260902234017 | 66 | 211 | 2.0 | 6.0 | 0.00 | 0.05 | 0.00 | 92 | 1018.1 |
| 20260902233017 | 66 | 198 | 4.0 | 6.0 | 0.00 | 0.05 | 0.00 | 92 | 1018.0 |
| 20260902232017 | 66 | 193 | 4.0 | 8.0 | 0.00 | 0.05 | 0.00 | 92 | 1017.9 |
| 20260902230517 | 66 | 195 | 5.0 | 9.0 | 0.00 | 0.05 | 0.00 | 92 | 1017.7 |
| 20260902225017 | 66 | 191 | 5.0 | 10.0 | 0.00 | 0.05 | 0.05 | 92 | 1017.9 |
| 20260902224517 | 66 | 198 | 5.0 | 10.0 | 0.00 | 0.05 | 0.05 | 92 | 1018.0 |
| 20260902224018 | 66 | 190 | 5.0 | 10.0 | 0.00 | 0.05 | 0.05 | 92 | 1018.0 |
| 20260902223517 | 66 | 208 | 5.0 | 10.0 | 0.00 | 0.05 | 0.05 | 92 | 1017.9 |
| 20260902223018 | 66 | 204 | 6.0 | 12.0 | 0.00 | 0.05 | 0.05 | 92 | 1018.0 |
| 20260902221517 | 65 | 204 | 6.0 | 10.0 | 0.00 | 0.05 | 0.05 | 92 | 1018.0 |
| 20260902220017 | 65 | 208 | 5.0 | 10.0 | 0.00 | 0.05 | 0.05 | 93 | 1017.9 |
| 20260902215517 | 65 | 206 | 4.0 | 8.0 | 0.00 | 0.05 | 0.05 | 93 | 1017.7 |
| 20260902214017 | 65 | 208 | 3.0 | 12.0 | 0.00 | 0.05 | 0.05 | 93 | 1017.9 |
| 20260902212517 | 65 | 207 | 3.0 | 10.0 | 0.00 | 0.05 | 0.05 | 93 | 1018.0 |
| 20260902212017 | 65 | 193 | 5.0 | 10.0 | 0.00 | 0.05 | 0.05 | 93 | 1017.9 |
| 20260902210517 | 65 | 201 | 5.0 | 10.0 | 0.00 | 0.05 | 0.05 | 93 | 1017.5 |
| 20260902205518 | 65 | 219 | 5.0 | 9.0 | 0.00 | 0.05 | 0.05 | 93 | 1017.6 |
| 20260902205017 | 65 | 194 | 3.0 | 10.0 | 0.00 | 0.05 | 0.05 | 93 | 1017.6 |
| 20260902204517 | 65 | 197 | 6.0 | 12.0 | 0.00 | 0.05 | 0.05 | 93 | 1017.5 |
| 20260902204017 | 65 | 216 | 3.0 | 12.0 | 0.00 | 0.05 | 0.05 | 93 | 1017.6 |
| 20260902203518 | 65 | 199 | 5.0 | 12.0 | 0.00 | 0.05 | 0.05 | 93 | 1017.5 |
| 20260902203017 | 65 | 203 | 5.0 | 10.0 | 0.00 | 0.05 | 0.05 | 93 | 1017.5 |
| 20260902202517 | 65 | 185 | 5.0 | 10.0 | 0.00 | 0.05 | 0.05 | 93 | 1017.5 |
| 20260902201018 | 65 | 222 | 5.0 | 8.0 | 0.00 | 0.05 | 0.05 | 93 | 1017.7 |
| 20260902200517 | 66 | 205 | 4.0 | 9.0 | 0.00 | 0.05 | 0.05 | 93 | 1017.6 |
| 20260902195517 | 66 | 208 | 5.0 | 9.0 | 0.00 | 0.05 | 0.05 | 93 | 1017.4 |
| 20260902195018 | 66 | 201 | 5.0 | 9.0 | 0.00 | 0.05 | 0.05 | 93 | 1017.4 |
| 20260902194518 | 66 | 188 | 2.0 | 10.0 | 0.00 | 0.05 | 0.05 | 93 | 1017.3 |
| 20260902194018 | 66 | 203 | 5.0 | 10.0 | 0.00 | 0.05 | 0.05 | 93 | 1017.2 |
| 20260902193517 | 66 | 202 | 5.0 | 10.0 | 0.00 | 0.05 | 0.05 | 93 | 1017.3 |
| 20260902192517 | 66 | 206 | 5.0 | 9.0 | 0.00 | 0.05 | 0.05 | 92 | 1017.2 |
| 20260902192017 | 66 | 184 | 4.0 | 9.0 | 0.00 | 0.05 | 0.05 | 92 | 1017.1 |
| 20260902185517 | 67 | 212 | 3.0 | 12.0 | 0.00 | 0.05 | 0.05 | 92 | 1017.2 |
| 20260902185017 | 67 | 198 | 3.0 | 12.0 | 0.00 | 0.05 | 0.05 | 92 | 1017.2 |
| 20260902183517 | 67 | 199 | 3.0 | 8.0 | 0.00 | 0.05 | 0.05 | 92 | 1017.0 |
| 20260902182517 | 67 | 224 | 5.0 | 10.0 | 0.00 | 0.05 | 0.05 | 92 | 1016.9 |
| 20260902182017 | 67 | 198 | 4.0 | 9.0 | 0.00 | 0.05 | 0.05 | 92 | 1017.0 |
| 20260902181517 | 67 | 194 | 4.0 | 12.0 | 0.00 | 0.06 | 0.05 | 92 | 1016.9 |
| 20260902181017 | 67 | 171 | 3.0 | 12.0 | 0.00 | 0.06 | 0.05 | 92 | 1016.8 |
| 20260902180018 | 67 | 186 | 4.0 | 12.0 | 0.00 | 0.10 | 0.05 | 92 | 1016.9 |
| 20260902175018 | 67 | 200 | 6.0 | 12.0 | 0.00 | 0.10 | 0.05 | 91 | 1016.9 |
| 20260902173017 | 67 | 192 | 7.0 | 12.0 | 0.00 | 0.10 | 0.05 | 92 | 1016.9 |
| 20260902172017 | 67 | 203 | 5.0 | 12.0 | 0.00 | 0.10 | 0.05 | 92 | 1016.8 |
| 20260902171517 | 67 | 205 | 6.0 | 13.0 | 0.00 | 0.10 | 0.05 | 92 | 1016.8 |
| 20260902171017 | 67 | 200 | 6.0 | 14.0 | 0.00 | 0.10 | 0.05 | 92 | 1016.8 |
| 20260902170517 | 67 | 197 | 6.0 | 14.0 | 0.00 | 0.10 | 0.05 | 92 | 1016.8 |
| 20260902165019 | 67 | 197 | 5.0 | 16.0 | 0.00 | 0.10 | 0.05 | 92 | 1016.9 |
| 20260902164017 | 67 | 182 | 6.0 | 12.0 | 0.00 | 0.10 | 0.05 | 92 | 1016.9 |